Location: *
(58.4167°N, 22.5000°E)
Time: 20:06:11
(UTC+00:00)

SPOT 3 Rocket - Pass Details

Date: 22 September 2019
Orbit: 780 x 794 km, 98.8° (Epoch: 19 October)

Event Time Altitude Azimuth Distance (km) Brightness Sun altitude
Rises 18:09:26 0° 170° (S) 3,256 6.4 -13.4°
Reaches altitude 10° 18:11:46 10° 173° (S) 2,333 5.7 -13.7°
Maximum altitude 18:16:53 65° 256° (WSW) 860 3.9 -14.3°
Drops below altitude 10° 18:22:02 10° 339° (NNW) 2,353 6.7 -14.9°
Sets 18:24:24 0° 342° (NNW) 3,287 7.5 -15.2°
